Weather History for Jordan, MT

Change the Weather History Date:

Saturday, June 7, 2014

  Actual Average Record
Temperature  
Mean Temperature 50 °F 60 °F  
Max Temperature 68 °F 74 °F 107 °F (1988)
Min Temperature 32 °F 46 °F 31 °F (1982)
Degree Days  
Heating Degree Days 15 6  
Month to date heating degree days 52 47  
Since 1 June heating degree days 52 47  
Since 1 July heating degree days 8479 8168  
Cooling Degree Days 0 1  
Month to date cooling degree days 1 6  
Year to date cooling degree days 26 12  
Since 1 June cooling degree days 1 6  
Moisture  
Dew Point 38 °F    
Average Humidity 65    
Maximum Humidity 96    
Minimum Humidity 34    
Precipitation  
Precipitation 0.00 in 0.09 in 2.10 in (1906)
Month to date precipitation 0.13 0.61  
Year to date precipitation 4.09 4.98  
Snow  
Snow 0.00 in - - ()
Month to date snowfall 0.0  
Since 1 June snowfall 0.0  
Since 1 July snowfall 0.0  
Snow Depth 0.00 in    
Sea Level Pressure  
Sea Level Pressure 30.11 in    
Wind  
Wind Speed 6 mph (South)    
Max Wind Speed 17 mph    
Max Gust Speed 22 mph    
T = Trace of Precipitation, MM = Missing Value Source: NWS Daily Summary

Daily Weather History Graph

Daily Weather History Graph

Search for Another Location

Airport:

Trip Planner

Search our weather history database for the weather conditions in past years. The results will help you decide how hot, cold, wet, or windy it might be!

Date:

Astronomy

Jun. 07, 2014 Rise Set
Actual Time 5:12 AM MDT 9:01 PM MDT
Civil Twilight 4:32 AM MDT 9:41 PM MDT
Nautical Twilight 3:38 AM MDT 10:35 PM MDT
Astronomical Twilight 2:19 AM MDT 11:55 PM MDT
Moon 3:00 PM MDT (6/7) 1:58 AM MDT (6/7)
Length of Visible Light 17h 08m
Length of Day
15h 49m
Waxing Gibbous, 68% of the Moon is Illuminated
Jun 7
Waxing Gibbous
Jun 12
Full
Jun 19
Last Quarter
Jun 27
New
Jul 5
First Quarter

Hourly Weather History & Observations

Time (MDT) Temp. Windchill Dew Point Humidity Pressure Visibility Wind Dir Wind Speed Gust Speed Precip Events Conditions
12:48 AM 41.0 °F 39.0 °F 36.0 °F 82% 30.21 in - West 3.5 mph - N/A   Unknown
1:48 AM 39.0 °F - 36.0 °F 89% 30.21 in - Calm Calm - N/A   Unknown
2:48 AM 36.0 °F - 33.1 °F 89% 30.21 in - Calm Calm - N/A   Unknown
3:48 AM 37.0 °F 34.5 °F 34.0 °F 89% 30.21 in - ENE 3.5 mph - N/A   Unknown
4:48 AM 33.1 °F - 30.9 °F 92% 30.21 in - Calm Calm - N/A   Unknown
6:48 AM 41.0 °F - 37.9 °F 89% 30.19 in - Calm Calm - N/A   Unknown
7:48 AM 48.9 °F - 42.1 °F 77% 30.18 in - Calm Calm - N/A   Unknown
8:48 AM 55.0 °F - 39.0 °F 55% 30.17 in - South 3.5 mph - N/A   Unknown
9:48 AM 57.9 °F - 36.0 °F 44% 30.15 in - Variable 4.6 mph - N/A   Unknown
12:48 PM 64.0 °F - 36.0 °F 35% 30.10 in - SE 11.5 mph - N/A   Unknown
1:48 PM 64.0 °F - 35.1 °F 34% 30.09 in - South 6.9 mph - N/A   Unknown
2:48 PM 66.0 °F - 37.0 °F 34% 30.08 in - SE 11.5 mph 21.9 mph N/A   Unknown
3:48 PM 66.9 °F - 37.9 °F 34% 30.05 in - South 10.4 mph - N/A   Unknown
4:48 PM 66.9 °F - 39.0 °F 36% 30.06 in - South 11.5 mph - N/A   Unknown
5:48 PM 66.9 °F - 39.0 °F 36% 30.05 in - SSE 10.4 mph - N/A   Unknown
6:48 PM 64.9 °F - 39.9 °F 40% 30.03 in - Variable 3.5 mph - N/A   Unknown
7:48 PM 63.0 °F - 42.1 °F 46% 30.02 in - SSE 8.1 mph - N/A   Unknown
8:48 PM 60.1 °F - 43.0 °F 53% 30.04 in - SW 5.8 mph - N/A   Unknown
9:48 PM 57.0 °F - 44.1 °F 62% 30.04 in - South 10.4 mph - N/A   Unknown
10:48 PM 54.0 °F - 42.1 °F 64% 30.05 in - West 6.9 mph - N/A   Unknown
11:48 PM 50.0 °F - 43.0 °F 77% 30.06 in - WNW 8.1 mph - N/A   Unknown